User: anonymous   Login
Location: La Vergne
(36.0160°N, 86.5820°W)
Time: 04:54:47
(UTC-06:00)
Language:

Cosmos 1703 Rocket - Orbit

View from above orbital plane
View from above orbital plane
View from above satellite
View from above satellite

Ground track
Ground track

The orbit data is extracted from the following two-line orbital elements,

1 16263U 85108B   14326.95654637  .00000584  00000-0  69564-4 0  8261
2 16263 082.5047 273.3472 0020357 189.6288 236.0303 14.82553140565492
Epoch (UTC): 22 November 2014 22:57:25
Eccentricity: 0.0020357
inclination: 82.5047°
perigee height: 607 km
apogee height: 635 km
right ascension of ascending node: 273.3472°
argument of perigee: 189.6288°
revolutions per day: 14.82553140
mean anomaly at epoch: 236.0303°
orbit number at epoch: 56549

The dashed part of the orbit path shows where the satellite is in the earth's shadow,  

DLR